Location: Bronschhofen
(47.4788°N, 9.0353°E)
Time: 21:20:24
(UTC+00:00)

Cosmos 614 Rocket - Pass Details

Date: 20 May 2022
Orbit: 732 x 764 km, 74.1° (Epoch: 01 July)

Event Time Altitude Azimuth Distance (km) Brightness Sun altitude
Rises 02:50:22 0° 336° (NNW) 3,208 7.5 -7.8°
Reaches altitude 10° 02:52:44 10° 335° (NNW) 2,284 6.7 -7.5°
Maximum altitude 02:57:55 78° 250° (WSW) 780 4.0 -6.8°
Drops below altitude 10° 03:03:06 10° 165° (SSE) 2,286 6.2 -6.1°
Sets 03:05:28 0° 164° (SSE) 3,210 7.0 -5.8°
